OE5XFR Weather Reports


time (UTC)temp
C
wind
direction
speed
KPH
gust
KPH
rain 1hr
cm
rain 24hr
cm
rain mn
cm
humidity
%
barometer
mb
20260506103316 17 99 6.4 22.5 0.00 0.05 0.00 52 1008.0
20260506100915 16 68 17.7 20.9 0.00 0.05 0.00 53 1008.0
20260506095715 16 76 9.7 22.5 0.00 0.05 0.00 52 1009.0
20260506094514 16 76 9.7 22.5 0.00 0.05 0.00 52 1009.0
20260506093314 16 71 12.9 17.7 0.00 0.05 0.00 53 1009.0
20260506092115 16 90 9.7 19.3 0.00 0.05 0.00 53 1009.0
20260506090914 16 58 14.5 20.9 0.00 0.05 0.00 49 1009.0
20260506085714 16 66 11.3 19.3 0.00 0.05 0.00 48 1008.0
20260506084515 16 74 11.3 22.5 0.00 0.05 0.00 48 1008.0
20260506083314 16 75 16.1 19.3 0.00 0.05 0.00 52 1009.0
20260506082114 16 121 16.1 16.1 0.00 0.05 0.00 52 1009.0
20260506080914 15 66 9.7 17.7 0.00 0.05 0.00 59 1009.0
20260506073316 13 55 8.0 11.3 0.00 0.05 0.00 70 1009.0
20260506072116 13 67 9.7 9.7 0.00 0.05 0.00 76 1009.0
20260506070916 12 76 8.0 9.7 0.00 0.05 0.00 88 1009.0
20260506062115 11 82 1.6 3.2 0.00 0.05 0.05 94 1009.0
20260506060917 10 129 1.6 3.2 0.00 0.05 0.05 94 1009.0
20260506050915 9 279 3.2 4.8 0.00 0.05 0.05 94 1009.0
20260506044515 8 47 4.8 6.4 0.00 0.05 0.05 94 1010.0
20260506043316 9 52 4.8 8.0 0.00 0.05 0.05 94 1010.0
20260506042115 9 14 3.2 8.0 0.00 0.05 0.05 94 1010.0
20260506040915 9 291 4.8 8.0 0.00 0.05 0.05 93 1010.0
20260506035715 9 338 3.2 6.4 0.00 0.05 0.05 93 1010.0
20260506034515 9 338 3.2 6.4 0.00 0.05 0.05 93 1010.0
20260506033315 10 237 3.2 6.4 0.00 0.05 0.05 93 1010.0
20260506032115 10 251 6.4 6.4 0.00 0.05 0.05 92 1010.0
20260506030915 10 250 4.8 4.8 0.00 0.05 0.05 92 1010.0
20260506025716 11 250 3.2 4.8 0.00 0.05 0.05 91 1010.0
20260506024515 11 282 3.2 4.8 0.00 0.05 0.05 91 1010.0
20260506023315 11 269 6.4 8.0 0.00 0.05 0.05 91 1010.0
20260506022115 11 288 6.4 8.0 0.00 0.05 0.05 89 1010.0
20260506020915 12 273 4.8 6.4 0.00 0.05 0.05 85 1010.0
20260506015715 12 301 3.2 6.4 0.00 0.05 0.05 83 1010.0
20260506014515 12 278 3.2 3.2 0.00 0.05 0.05 83 1010.0
20260506013315 12 244 1.6 3.2 0.00 0.05 0.05 82 1010.0
20260506012115 12 327 1.6 3.2 0.00 0.05 0.05 80 1010.0
20260506010916 12 168 3.2 6.4 0.00 0.05 0.05 76 1010.0
20260506005715 12 173 3.2 6.4 0.00 0.05 0.05 76 1011.0
20260506004515 12 173 3.2 6.4 0.00 0.05 0.05 76 1011.0
20260506003315 12 181 8.0 9.7 0.00 0.05 0.05 80 1011.0
20260506002115 12 123 4.8 6.4 0.00 0.05 0.05 82 1011.0
20260506000915 12 225 4.8 8.0 0.00 0.05 0.05 82 1011.0
20260505235715 12 278 8.0 16.1 0.00 0.05 0.05 84 1011.0
20260505234515 12 278 8.0 16.1 0.00 0.05 0.05 84 1011.0
20260505233315 13 267 14.5 22.5 0.00 0.05 0.05 89 1010.0
20260505232115 13 267 14.5 22.5 0.00 0.05 0.05 89 1010.0
20260505230915 13 263 19.3 25.7 0.00 0.05 0.05 91 1010.0
20260505225715 12 270 20.9 25.7 0.00 0.05 0.05 91 1010.0
20260505224515 12 271 25.7 24.1 0.00 0.05 0.05 92 1010.0
20260505223315 12 249 16.1 20.9 0.00 0.05 0.05 93 1010.0
20260505222115 12 249 16.1 20.9 0.00 0.05 0.05 93 1010.0
20260505220916 12 262 14.5 17.7 0.00 0.05 0.05 92 1010.0
20260505215715 12 248 14.5 19.3 0.00 0.05 0.05 92 1010.0
20260505214514 12 248 14.5 19.3 0.00 0.05 0.05 92 1010.0
20260505213315 12 257 19.3 22.5 0.00 0.05 0.05 94 1009.0
20260505212115 11 267 17.7 19.3 0.00 0.05 0.05 95 1009.0
20260505210915 11 234 6.4 9.7 0.00 0.05 0.05 94 1009.0
20260505205715 12 246 6.4 9.7 0.00 0.05 0.05 94 1008.0
20260505204515 12 246 6.4 9.7 0.00 0.05 0.05 94 1008.0
20260505203315 12 299 9.7 11.3 0.00 0.05 0.05 92 1008.0
20260505202115 13 282 9.7 9.7 0.00 0.05 0.05 92 1008.0
20260505200915 13 267 3.2 4.8 0.00 0.05 0.05 91 1008.0
20260505195715 13 256 1.6 6.4 0.00 0.05 0.05 91 1008.0
20260505194514 13 270 1.6 4.8 0.00 0.05 0.05 90 1008.0
20260505193314 13 195 1.6 4.8 0.00 0.05 0.05 90 1008.0
20260505192114 13 85 3.2 4.8 0.00 0.05 0.05 89 1008.0
20260505190915 14 48 4.8 4.8 0.00 0.05 0.05 83 1007.0
20260505185714 14 61 4.8 6.4 0.00 0.05 0.05 78 1007.0
20260505184514 14 220 4.8 9.7 0.00 0.05 0.05 81 1007.0
20260505183314 14 212 4.8 11.3 0.00 0.05 0.05 80 1007.0
20260505182115 14 253 11.3 12.9 0.00 0.05 0.05 79 1007.0
20260505180915 14 214 9.7 9.7 0.00 0.05 0.05 78 1007.0
20260505175714 14 268 6.4 17.7 0.05 0.05 0.05 84 1007.0
20260505174514 14 268 6.4 17.7 0.05 0.05 0.05 84 1007.0
20260505173314 14 281 11.3 24.1 0.03 0.03 0.03 87 1008.0
20260505172114 15 260 22.5 43.5 0.00 0.00 0.00 74 1008.0
20260505170914 16 253 37.0 53.1 0.00 0.00 0.00 59 1008.0
20260505165715 19 241 33.8 54.7 0.00 0.00 0.00 44 1007.0
20260505164514 21 251 33.8 33.8 0.00 0.00 0.00 35 1006.0
20260505163314 22 100 6.4 20.9 0.00 0.00 0.00 28 1006.0
20260505162114 22 132 9.7 11.3 0.00 0.00 0.00 27 1006.0
20260505160914 23 76 6.4 8.0 0.00 0.00 0.00 27 1006.0
20260505153314 23 14 4.8 6.4 0.00 0.00 0.00 25 1006.0
20260505152114 23 61 6.4 9.7 0.00 0.00 0.00 25 1006.0
20260505150915 23 82 11.3 17.7 0.00 0.00 0.00 26 1006.0
20260505124515 24 96 6.4 24.1 0.00 0.00 0.00 20 1008.0
20260505123315 24 50 12.9 14.5 0.00 0.00 0.00 21 1008.0
20260505122115 24 59 6.4 16.1 0.00 0.00 0.00 20 1008.0
20260505120915 23 145 3.2 12.9 0.00 0.00 0.00 17 1008.0
20260505115715 23 190 8.0 14.5 0.00 0.00 0.00 16 1008.0
20260505114515 24 178 14.5 14.5 0.00 0.00 0.00 15 1008.0
20260505113315 25 254 8.0 9.7 0.00 0.00 0.00 16 1008.0
20260505112115 24 263 4.8 9.7 0.00 0.00 0.00 18 1008.0
20260505110915 23 297 6.4 11.3 0.00 0.00 0.00 20 1009.0